Back to catalog

COSMOS 2251 DEB

AliveVLEO
NORAD 34451·DEBRIS·🇷🇺 Russia

Launched Jun 16, 1993 from Plesetsk Cosmodrome

Loading…

Next Passes (next 24 hours)

TLE

FreshSource: Space-Track

Epoch: Sep 14, 2026, 09:28 UTC

1 34451U 93036SU  26257.39482145  .00037099  00000-0  17973-2 0  9993
2 34451  74.0381 241.5274 0017715 209.4013 150.6189 15.18235323927884

Track COSMOS 2251 DEB in real time with AllMySat

Download on the App Store